Regional Weather Roundup
Issued by NWS Sterling, VA

Home | Current Version | Previous Version | Text Only | Print | Product List | Glossary Off
Versions: 1 2 3 4 5 6 7 8 9 10 11 12 13 14 15 16 17 18 19 20 21 22 23 24 25 26 27

000
ASUS41 KLWX 270611
RWRLWX

REGIONAL WEATHER ROUNDUP
NATIONAL WEATHER SERVICE BALTIMORE MD/WASHINGTON DC
200 AM EDT TUE SEP 27 2016

Note: "FAIR" indicates few or no clouds below 12,000 feet
with no significant weather and/or obstructions to visibility.
 TC=TEMPERATURE CELSIUS

 * =Non NWS site. Station does not report precipitation (e.g. rain,
    snow, etc.), thunder, or fog.

DCZ001-MDZ009-015-VAZ040>042-051-053>054-270700-
WASHINGTON METRO

CITY           SKY/WX    TMP DP  RH WIND       PRES   REMARKS
WASHINGTON NAT CLOUDY    67  66  97 S5        29.96S
DULLES         RAIN      64  63  96 S6        29.96R FOG
ANDREWS AFB    CLOUDY    66  63  88 SW8       29.95S
FT BELVOIR     CLOUDY    67  63  89 VRB5      29.96R
QUANTICO       CLOUDY    68  64  87 SW5       29.97S
COLLEGE PARK*  CLOUDY    64  63  94 CALM      29.95R
LEESBURG*      LGT RAIN  64  64 100 CALM      29.97R
MANASSAS*      CLOUDY    64  64 100 SW3       29.97R
GAITHERSBURG*  CLOUDY    64  61  88 CALM      30.00R

$$

MDZ006>007-011-014-270700-
BALTIMORE METRO

CITY           SKY/WX    TMP DP  RH WIND       PRES   REMARKS
BWI AIRPORT    CLOUDY    64  61  90 CALM      29.95S
MD SCIENCE CTR   N/A     67  61  81 MISG      29.95F
ANNAPOLIS      CLOUDY    67  63  87 CALM      29.94F
FORT MEADE*    CLOUDY    63  61  94 CALM      29.97S

$$

MDZ012-015-019>023-270700-
MARYLAND EASTERN SHORE

CITY           SKY/WX    TMP DP  RH WIND       PRES   REMARKS
OCEAN CITY     CLOUDY    73  69  87 SW8       29.97F
SALISBURY      CLOUDY    69  67  93 S7        29.97S
BAY BRIDGE AP* CLOUDY    70  64  83 MISG      29.95S
CAMBRIDGE*     CLOUDY    68  64  88 S6        29.96S

$$

MDZ017>025-270700-
SOUTHERN MARYLAND

CITY           SKY/WX    TMP DP  RH WIND       PRES   REMARKS
PATUXENT RIVER LGT RAIN  69  63  81 SW10      29.96F
ST INIGOES     LGT RAIN  69  66  90 SW8       29.96S
LEONARDTOWN*   CLOUDY    66  63  88 SW7       29.98S

$$

MDZ003>005-270700-
NORTH CENTRAL MARYLAND

CITY           SKY/WX    TMP DP  RH WIND       PRES   REMARKS
FREDERICK*     NOT AVBL
HAGERSTOWN APT CLOUDY    65  62  90 CALM      29.96S

$$

MDZ501>502-270700-
WESTERN MARYLAND

CITY           SKY/WX    TMP DP  RH WIND       PRES   REMARKS
OAKLAND*       CLOUDY    50  50 100 W7        30.06R
CUMBERLAND*    CLOUDY    64  55  72 W9        30.02R

$$

VAZ025>031-270700-
SHENANDOAH VALLEY

CITY           SKY/WX    TMP DP  RH WIND       PRES   REMARKS
WINCHESTER*    CLOUDY    66  64  94 CALM      29.96S FOG
FRONT ROYAL*   MOCLDY    64  64 100 CALM      29.95S
LURAY*         CLOUDY   N/A N/A N/A CALM      29.97F
NEW MARKET*    CLOUDY   N/A N/A N/A CALM      29.97S
STAUNTON*      CLOUDY    63  63  99 S6        30.00F FOG
WAYNESBORO*    CLOUDY    63  62  96 CALM      30.00S

$$

WVZ021-048>050-054>055-270700-
EASTERN WEST VIRGINIA PANHANDLE

CITY           SKY/WX    TMP DP  RH WIND       PRES   REMARKS
MARTINSBURG    CLOUDY    64  63  96 CALM      29.96R FOG
PETERSBURG*    MOCLDY    66  60  81 CALM      29.97F

$$

VAZ036>039-050-270700-
CENTRAL FOOTHILLS

CITY           SKY/WX    TMP DP  RH WIND       PRES   REMARKS
CHARLOTTESVILL RAIN      66  64  93 CALM      29.97F FOG
CULPEPER*      HVY RAIN  66  65  97 S3        29.98R
ORANGE*          N/A     66  66 100 CALM      29.99F
GORDONSVILLE*  NOT AVBL
WARRENTON*     LGT RAIN  66  61  85 CALM      29.97R

$$

VAZ055>057-270700-
NORTH AND CENTRAL PIEDMONT

CITY           SKY/WX    TMP DP  RH WIND       PRES   REMARKS
FREDERICKSBRG* MOCLDY    66  66 100 CALM      29.96S
STAFFORD*      CLOUDY    65  65 100 CALM      30.01S

$$

NCZ024-NYZ072-PAZ021-071-VAZ022-071-270700-
OTHER REGIONAL OBSERVATIONS

CITY           SKY/WX    TMP DP  RH WIND       PRES   REMARKS
NEW YORK CITY  CLOUDY    69  61  75 MISG      29.96F
PHILADELPHIA   CLOUDY    69  64  84 SW10      29.95S
PITTSBURGH     PTCLDY    56  55  97 SW6       30.00S
ROANOKE        CLOUDY    67  66  97 E3        30.03S FOG
RICHMOND       CLOUDY    67  65  93 S7        29.97F
RALEIGH        CLOUDY    70  67  90 W7        30.03S

$$

ANZ530>537-270700-
MARINE OBSERVATIONS

STATION/POSITION TIME  TEMP    WIND        PRES
                       AIR SEA DIR/SP/G
                 (UTC) (F)     (DEG/KT/KT) (MB)
THOMAS PT LIGHT  0600   68 74  220/ 10/ 11 1015.4F
BALT KEY BRIDGE  0548          200/  4/  5 1013.9F
COVE POINT       0548          240/ 11/ 15 1014.9F
LEWISETTA        0542      74  240/  7/  9 1014.3R
SOLOMONS ISLAND  0542      75  230/ 12/ 17   N/A
PINEY POINT      0548          240/  7/ 11   N/A

$$





USA.gov is the U.S. government's official web portal to all federal, state and local government web resources and services.